IRNSS-1G

Last updated on Tue Jul 08 2025 00:02:46 GMT+0000 (Coordinated Universal Time)

1 41469U 16027A 25188.58921684 -.00000322 00000+0 00000+0 0 9993 2 41469 4.3506 106.4018 0006928 359.7709 161.2148 1.00277167 33728
UTC large
Height (km)
Speed (km/s)
/
Latitude / Longitude
Inclination (degrees)
Orbital Period (minutes)
Azimuth
Elevation
Range (km)
Doppler Factor

Next 0 passes for location: London (51.5072 / 0.1276)

Sorry there are no passes over London.